When you browse on this site, cookies collect data to enhance your experience and personalize the content and advertising you see.
Visit our Privacy Policy to learn more. By continuing to use the site, you agree to this use of cookies and data.
  • Em Portugal
  • Lista de países
  • Para 7 dias
  • Temperatura da água
  • Mapas de satélite
  • Mapa do tempo
  • Widgets de tempo
  • user-avatar
    Iniciar Sessão

    Previsão horária em Nagasaqui

    Hoje, 21 Abril, Domingo

    Tempo Temperatura Precipitação Vento Pressão Humidade
    00:00 +18°C° 0 mm 0 m/s 758 mmHg 69%
    01:00 +18°C° 0 mm 0 m/s 757 mmHg 70%
    02:00 +18°C° 0 mm 0 m/s 757 mmHg 70%
    03:00 +20°C° 0 mm 1 m/s 757 mmHg 73%
    04:00 +20°C° 0 mm 1 m/s 757 mmHg 74%
    05:00 +20°C° 0 mm 1 m/s 757 mmHg 74%
    06:00 +19°C° 0 mm 2 m/s 757 mmHg 75%
    07:00 +19°C° 0 mm 2 m/s 757 mmHg 74%
    08:00 +20°C° 0 mm 1 m/s 757 mmHg 74%
    09:00 +20°C° 0 mm 1 m/s 757 mmHg 73%
    10:00 +20°C° 0 mm 1 m/s 757 mmHg 72%
    11:00 +21°C° 0 mm 1 m/s 757 mmHg 70%
    12:00 +21°C° 0 mm 1 m/s 757 mmHg 69%
    13:00 +21°C° 0 mm 1 m/s 757 mmHg 68%
    14:00 +20°C° 0 mm 2 m/s 756 mmHg 68%
    15:00 +20°C° 0 mm 2 m/s 756 mmHg 68%
    16:00 +20°C° 0 mm 2 m/s 756 mmHg 68%
    17:00 +20°C° 0 mm 3 m/s 756 mmHg 68%
    18:00 +20°C° 0 mm 3 m/s 756 mmHg 69%
    19:00 +20°C° 0 mm 3 m/s 756 mmHg 70%
    20:00 +20°C° 0 mm 3 m/s 756 mmHg 71%
    21:00 +20°C° 0 mm 3 m/s 757 mmHg 71%
    22:00 +20°C° 0 mm 3 m/s 757 mmHg 72%
    23:00 +20°C° 0 mm 4 m/s 757 mmHg 72%

    Amanhã, 22 Abril, Segunda-feira

    Tempo Temperatura Precipitação Vento Pressão Humidade
    00:00 +19°C° 0 mm 4 m/s 757 mmHg 72%
    01:00 +19°C° 0 mm 4 m/s 757 mmHg 73%
    02:00 +19°C° 0 mm 4 m/s 757 mmHg 73%
    03:00 +19°C° 0 mm 4 m/s 757 mmHg 74%
    04:00 +19°C° 0 mm 4 m/s 757 mmHg 74%
    05:00 +19°C° 0 mm 3 m/s 757 mmHg 74%
    06:00 +19°C° 0 mm 3 m/s 758 mmHg 75%
    07:00 +19°C° 0 mm 3 m/s 758 mmHg 74%
    08:00 +19°C° 0 mm 3 m/s 758 mmHg 74%
    09:00 +20°C° 0 mm 3 m/s 758 mmHg 73%
    10:00 +20°C° 0 mm 3 m/s 758 mmHg 72%
    11:00 +20°C° 0 mm 2 m/s 759 mmHg 72%
    12:00 +22°C° 0 mm 1 m/s 759 mmHg 71%
    13:00 +21°C° 0 mm 2 m/s 758 mmHg 69%
    14:00 +21°C° 0 mm 3 m/s 758 mmHg 68%
    15:00 +21°C° 0 mm 3 m/s 758 mmHg 67%
    16:00 +21°C° 0 mm 3 m/s 758 mmHg 70%
    17:00 +21°C° 0 mm 3 m/s 758 mmHg 73%
    18:00 +21°C° 0 mm 3 m/s 758 mmHg 76%
    19:00 +21°C° 0 mm 3 m/s 759 mmHg 77%
    20:00 +21°C° 0 mm 2 m/s 759 mmHg 78%
    21:00 +22°C° 0 mm 1 m/s 759 mmHg 78%
    22:00 +21°C° 0 mm 2 m/s 760 mmHg 76%
    23:00 +21°C° 0 mm 2 m/s 760 mmHg 74%

    Depois de amanhã, 23 Abril, Terça-feira

    Tempo Temperatura Precipitação Vento Pressão Humidade
    00:00 +21°C° 0 mm 3 m/s 760 mmHg 72%
    01:00 +21°C° 0 mm 3 m/s 760 mmHg 72%
    02:00 +21°C° 0 mm 3 m/s 759 mmHg 72%
    03:00 +21°C° 0 mm 3 m/s 759 mmHg 72%
    04:00 +21°C° 0 mm 3 m/s 759 mmHg 74%
    05:00 +21°C° 0 mm 4 m/s 759 mmHg 76%
    06:00 +20°C° 0 mm 4 m/s 759 mmHg 78%
    07:00 +20°C° 0 mm 4 m/s 759 mmHg 80%
    08:00 +20°C° 0 mm 4 m/s 759 mmHg 82%
    09:00 +20°C° 0 mm 4 m/s 760 mmHg 85%
    10:00 +21°C° 0 mm 4 m/s 760 mmHg 85%
    11:00 +21°C° 0 mm 4 m/s 760 mmHg 85%
    12:00 +21°C° 0 mm 5 m/s 760 mmHg 85%
    13:00 +21°C° 0 mm 5 m/s 759 mmHg 85%
    14:00 +21°C° 0 mm 5 m/s 759 mmHg 85%
    15:00 +21°C° 0 mm 5 m/s 758 mmHg 85%
    16:00 +21°C° 0.3 mm 6 m/s 758 mmHg 84%
    17:00 +21°C° 0.3 mm 8 m/s 758 mmHg 84%
    18:00 +21°C° 0.3 mm 9 m/s 758 mmHg 83%
    19:00 +21°C° 0 mm 9 m/s 758 mmHg 83%
    20:00 +21°C° 0 mm 9 m/s 759 mmHg 83%
    21:00 +21°C° 0 mm 9 m/s 759 mmHg 83%
    22:00 +21°C° 0 mm 9 m/s 759 mmHg 83%
    23:00 +21°C° 0 mm 9 m/s 758 mmHg 84%

    24 Abril, Quarta-feira

    Tempo Temperatura Precipitação Vento Pressão Humidade
    00:00 +21°C° 0 mm 9 m/s 758 mmHg 85%
    01:00 +21°C° 0.2 mm 9 m/s 758 mmHg 86%
    02:00 +21°C° 0.2 mm 9 m/s 757 mmHg 86%
    03:00 +21°C° 0.2 mm 9 m/s 757 mmHg 87%
    04:00 +21°C° 0.8 mm 9 m/s 757 mmHg 88%
    05:00 +21°C° 0.8 mm 9 m/s 756 mmHg 89%
    06:00 +19°C° 0.8 mm 9 m/s 756 mmHg 90%
    07:00 +19°C° 1.4 mm 10 m/s 756 mmHg 90%
    08:00 +19°C° 1.4 mm 10 m/s 756 mmHg 90%
    09:00 +19°C° 1.4 mm 10 m/s 756 mmHg 91%
    10:00 +19°C° 2.5 mm 10 m/s 756 mmHg 91%
    11:00 +19°C° 2.5 mm 11 m/s 755 mmHg 91%
    12:00 +19°C° 2.5 mm 11 m/s 755 mmHg 92%
    13:00 +21°C° 0.3 mm 11 m/s 754 mmHg 92%
    14:00 +21°C° 0.3 mm 11 m/s 754 mmHg 92%
    15:00 +21°C° 0.3 mm 11 m/s 753 mmHg 92%
    16:00 +21°C° 0.2 mm 11 m/s 753 mmHg 92%
    17:00 +21°C° 0.2 mm 11 m/s 752 mmHg 92%
    18:00 +21°C° 0.2 mm 11 m/s 752 mmHg 92%
    19:00 +21°C° 0.8 mm 10 m/s 752 mmHg 92%
    20:00 +21°C° 0.8 mm 9 m/s 752 mmHg 93%
    21:00 +21°C° 0.8 mm 8 m/s 752 mmHg 93%
    22:00 +21°C° 0.4 mm 6 m/s 752 mmHg 95%
    23:00 +21°C° 0.4 mm 5 m/s 752 mmHg 96%

    25 Abril, Quinta-feira

    Tempo Temperatura Precipitação Vento Pressão Humidade
    00:00 +21°C° 0.4 mm 4 m/s 752 mmHg 97%
    01:00 +21°C° 0.1 mm 4 m/s 752 mmHg 96%
    02:00 +21°C° 0.1 mm 4 m/s 751 mmHg 96%
    03:00 +21°C° 0.1 mm 3 m/s 751 mmHg 96%
    04:00 +20°C° 0 mm 3 m/s 751 mmHg 96%
    05:00 +20°C° 0 mm 3 m/s 751 mmHg 95%
    06:00 +20°C° 0 mm 3 m/s 752 mmHg 95%
    07:00 +20°C° 0 mm 3 m/s 752 mmHg 94%
    08:00 +20°C° 0 mm 3 m/s 752 mmHg 94%
    09:00 +20°C° 0 mm 4 m/s 753 mmHg 94%
    10:00 +20°C° 0 mm 4 m/s 753 mmHg 93%
    11:00 +20°C° 0 mm 4 m/s 753 mmHg 92%
    12:00 +20°C° 0 mm 4 m/s 753 mmHg 91%
    13:00 +20°C° 0 mm 4 m/s 752 mmHg 90%
    14:00 +20°C° 0 mm 4 m/s 752 mmHg 89%
    15:00 +20°C° 0 mm 4 m/s 752 mmHg 88%
    16:00 +20°C° 0 mm 5 m/s 752 mmHg 88%
    17:00 +20°C° 0 mm 5 m/s 752 mmHg 87%
    18:00 +20°C° 0 mm 5 m/s 753 mmHg 87%
    19:00 +20°C° 0.1 mm 4 m/s 753 mmHg 88%
    20:00 +20°C° 0.1 mm 4 m/s 753 mmHg 88%
    21:00 +20°C° 0.1 mm 4 m/s 754 mmHg 89%
    22:00 +19°C° 0 mm 3 m/s 753 mmHg 90%
    23:00 +19°C° 0 mm 3 m/s 753 mmHg 90%

    26 Abril, Sexta-feira

    Tempo Temperatura Precipitação Vento Pressão Humidade
    00:00 +19°C° 0 mm 3 m/s 753 mmHg 90%
    01:00 +19°C° 0 mm 4 m/s 753 mmHg 90%
    02:00 +19°C° 0 mm 4 m/s 753 mmHg 90%
    03:00 +17°C° 0 mm 5 m/s 753 mmHg 90%
    04:00 +18°C° 0 mm 4 m/s 753 mmHg 88%
    05:00 +18°C° 0 mm 4 m/s 754 mmHg 87%
    06:00 +18°C° 0 mm 4 m/s 754 mmHg 85%
    07:00 +18°C° 0 mm 3 m/s 754 mmHg 84%
    08:00 +18°C° 0 mm 3 m/s 754 mmHg 83%
    09:00 +18°C° 0 mm 3 m/s 754 mmHg 82%
    10:00 +18°C° 0 mm 3 m/s 754 mmHg 82%
    11:00 +19°C° 0 mm 4 m/s 755 mmHg 82%
    12:00 +19°C° 0 mm 5 m/s 755 mmHg 82%
    13:00 +19°C° 0 mm 5 m/s 754 mmHg 82%
    14:00 +19°C° 0 mm 6 m/s 754 mmHg 82%
    15:00 +18°C° 0 mm 7 m/s 754 mmHg 83%
    16:00 +19°C° 0 mm 6 m/s 754 mmHg 82%
    17:00 +17°C° 0 mm 6 m/s 754 mmHg 81%
    18:00 +17°C° 0 mm 6 m/s 755 mmHg 81%
    19:00 +17°C° 0 mm 6 m/s 755 mmHg 81%
    20:00 +17°C° 0 mm 7 m/s 755 mmHg 82%
    21:00 +17°C° 0 mm 7 m/s 756 mmHg 82%
    22:00 +17°C° 0 mm 8 m/s 756 mmHg 80%
    23:00 +16°C° 0 mm 9 m/s 756 mmHg 78%
    Mostrar mais